Regional Weather Roundup
Issued by NWS Albany, NY

Home | Current Version | Previous Version | Text Only | Print | Product List | Glossary On
Versions: 1 2 3 4 5 6 7 8 9 10 11 12 13 14 15 16 17 18 19 20 21 22 23 24 25 26 27 28 29 30 31 32 33 34 35 36 37 38 39 40 41 42 43 44 45 46 47 48 49 50
000
ASUS41 KALY 250210
RWRALY

NEW YORK STATE HOURLY WEATHER ROUNDUP
NATIONAL WEATHER SERVICE ALBANY NY
1000 PM EDT THU JUL 24 2014

NOTE: "FAIR" INDICATES FEW OR NO CLOUDS BELOW 12,000 FEET WITH NO
SIGNIFICANT WEATHER AND/OR NO OBSTRUCTIONS TO VISIBILITY.

NYZ032-033-038>043-046>054-057>066-NYZ062>081-250300-
EAST


CITY           SKY/WX    TMP DP  RH WIND       PRES   REMARKS
ALBANY         PTCLDY    69  51  52 NW9       29.92R
GLENS FALLS    CLEAR     60  56  86 CALM      29.93R
POUGHKEEPSIE   MOCLDY    65  60  84 CALM      29.90R
MONTGOMERY     MOCLDY    67  53  61 NW5       29.92R
WHITE PLAINS   MOCLDY    67  57  70 NW7       29.90R
ISLIP          PTCLDY    72  58  61 NW5       29.87R
NEW YORK CITY  MOCLDY    76  56  49 N9        29.88R
CENTRAL PARK   MOCLDY    75  55  49 VRB3      29.92R
$$

NYZ005>009-017-018-044>046-055-056-250300-
CENTRAL


CITY           SKY/WX    TMP DP  RH WIND       PRES   REMARKS
FULTON         CLEAR     58  53  84 CALM      29.99R
SYRACUSE       PTCLDY    63  51  65 W5        29.99R
ROME           CLEAR     59  52  77 NW5       29.99R
ELMIRA         CLEAR     54  51  90 CALM      30.01R
BINGHAMTON     CLEAR     58  48  69 NW6       30.00S
MONTICELLO     PTCLDY    59  50  72 NW5       29.98S
$$

NYZ026>034-041>043-250300-
NORTH


CITY           SKY/WX    TMP DP  RH WIND       PRES   REMARKS
WATERTOWN      CLEAR     60  53  77 S3        29.97R
FORT DRUM      NOT AVBL
MASSENA        CLEAR     60  54  80 S5        29.93S
SARANAC LAKE   CLEAR     50  48  93 CALM      29.96S
PLATTSBURGH    PTCLDY    56  53  90 S3        29.92R
$$

NYZ001>004-010>016-019>021-250300-
WEST


CITY           SKY/WX    TMP DP  RH WIND       PRES   REMARKS
NIAGARA FALLS  CLEAR     61  50  67 CALM      30.01R
BUFFALO        PTCLDY    67  46  47 CALM      30.02R
DUNKIRK        CLEAR     55  51  86 SW3       30.03R
JAMESTOWN      CLEAR     57  45  62 NW3       30.05R
WELLSVILLE     CLEAR     58  44  60 N3        30.06R
ROCHESTER      CLEAR     62  52  69 SW3       30.00R
PENN YAN       CLEAR     56  51  84 CALM      30.01R
$$

             KEY
       WCI = WIND CHILL INDEX
       VSB = VISIBILITY
       HX  = HEAT INDEX
$$


USA.gov is the U.S. government's official web portal to all federal, state and local government web resources and services.